Overview Statistics Trail Chart Weather Telemetry Raw packets
 

This is the latest recevied weather packets stored in our database for station/object IONIA-WX. If no packets are shown the sender has not sent any weather packets the latest 10 day(s).

<< 17 18 19 20 21 22 23 >>
Time Temp. Humidity Pressure Rain* Wind** Luminosity Snow
1788220818 25° C 81% 982.8 hPa 0 mm - - -
1788219921 25° C 77% 983.3 hPa 0 mm - - -
1788219020 25.56° C 71% 983.2 hPa 0 mm - - -
1788218120 25.56° C 71% 983.2 hPa 0 mm - - -
1788217222 26.11° C 71% 983.2 hPa 0 mm - - -
1788216320 26.11° C 71% 983.5 hPa 0 mm - - -
1788215421 27.78° C 71% 983.6 hPa 0 mm - - -
1788214517 27.22° C 71% 983.6 hPa 0 mm - - -
1788213620 27.22° C 71% 983.6 hPa 0 mm - - -
1788212720 26.67° C 77% 984.2 hPa 0 mm - - -
1788211817 26.11° C 64% 984 hPa 0 mm - - -
1788210920 27.78° C 64% 984.2 hPa 0 mm - - -
1788210020 27.78° C 64% 984.2 hPa 0 mm - - -
1788209117 27.22° C 79% 985.2 hPa 0.51 mm - - -
1788208218 26.67° C 75% 984.8 hPa 0.51 mm - - -
1788207319 26.67° C 75% 984.9 hPa 1.02 mm - - -
1788206420 26.11° C 67% 984.9 hPa 1.02 mm - - -
1788205519 25° C 66% 984.7 hPa 0.25 mm - - -
1788204619 26.11° C 66% 984.7 hPa 0.25 mm - - -
1788203719 27.78° C 66% 985 hPa 0 mm - - -
1788202821 27.78° C 56% 984.7 hPa 0 mm - - -
1788201917 28.33° C 60% 985.4 hPa 0 mm - - -
1788201019 29.44° C 60% 985.5 hPa 0 mm - - -
1788200118 29.44° C 60% 985.5 hPa 0 mm - - -
1788199219 28.89° C 60% 985.5 hPa 0 mm - - -

* Rain latest hour (hover to see other rain measurements)
** Current wind speed in m/s (hover to see current wind gust speed)